WA2GUG Weather Reports


Display with metric or nautical units.
time (UTC)temp
F
wind
direction
speed
MPH
gust
MPH
rain 1hr
in
rain 24hr
in
rain mn
in
humidity
%
barometer
mb
20200808121044 0 45 0.0 0.0 0.00 0.00 0.00 99 1017.0
20200808120544 0 41 0.0 0.0 0.00 0.00 0.00 99 1016.0
20200808120042 0 22 0.0 0.0 0.00 0.00 0.00 99 3363.0
20200808115543 0 22 0.0 0.0 0.00 0.00 0.00 99 1017.0
20200808115042 0 11 0.0 0.0 0.00 0.00 0.00 99 1017.0
20200808114547 0 337 0.0 0.0 0.00 0.00 0.00 99 1017.0
20200808114042 0 22 0.0 0.0 0.00 0.00 0.00 99 1017.0
20200808113543 0 45 0.0 0.0 0.00 0.00 0.00 99
20200808113042 0 33 0.0 0.0 0.00 0.00 0.00 99 1017.0
20200808112542 0 45 0.0 0.0 0.00 0.00 0.00 99
20200808112045 0 45 0.0 0.0 0.00 0.00 0.00 99 1017.0
20200808111543 63 15 0.0 0.0 0.00 0.00 0.00 99 1017.0
20200808111042 0 0.0 0.0 0.00 0.00 0.00 99 1017.0
20200808110542 0 0.0 0.0 0.00 0.00 0.00 99 1017.0
20200808110042 0 270 0.0 0.0 0.00 0.00 0.00 99
20200808105542 0 45 0.0 0.0 0.00 0.00 0.00 99 1017.0
20200808105042 0 45 0.0 0.0 0.00 0.00 0.00 99
20200808104542 0 45 0.0 0.0 0.00 0.00 0.00 99 1017.0
20200808104042 0 45 0.0 0.0 0.00 0.00 0.00 99 1017.0
20200808103542 0 45 0.0 0.0 0.00 0.00 0.00 99 979.0
20200808103042 0 45 0.0 0.0 0.00 0.00 0.00 99 1017.0
20200808102542 0 45 0.0 0.0 0.00 0.00 0.00 99 1017.0
20200808102043 0 45 0.0 0.0 0.00 0.00 0.00 99 1017.0
20200808101544 0 39 0.0 0.0 0.00 0.00 0.00 99 1017.0
20200808101042 0 22 0.0 0.0 0.00 0.00 0.00 99 1017.0
20200808100543 0 0 0.0 0.0 0.00 0.00 0.00 94 1017.0
20200808100042 0 45 0.0 0.0 0.00 0.00 0.00 99 1017.0
20200808095543 0 45 0.0 0.0 0.00 0.00 0.00 99 2424.0
20200808095042 0 45 0.0 0.0 0.00 0.00 0.00 99 1237.0
20200808094542 0 22 0.0 0.0 0.00 0.00 0.00 99 1017.0
20200808094043 0 0.0 0.0 0.00 0.00 0.00 99
20200808093542 0 33 0.0 0.0 0.00 0.00 0.00 99 1017.0
20200808093042 0 282 0.0 0.0 0.00 0.00 0.00 99 1017.0
20200808092542 0 33 0.0 0.0 0.00 0.00 0.00 99 1017.0
20200808092043 0 22 0.0 0.0 0.00 0.00 0.00 99 971.0
20200808091543 0 22 0.0 0.0 0.00 0.00 0.00 99 1017.0
20200808091042 0 22 0.0 0.0 0.00 0.00 0.00 99 984.0
20200808090542 0 22 0.0 0.0 0.00 0.00 0.00 99 1017.0
20200808090042 0 22 0.0 0.0 0.00 0.00 0.00 99 1683.0
20200808085544 0 0.0 0.0 0.00 0.00 0.00 99 1017.0
20200808085043 0 22 0.0 0.0 0.00 0.00 0.00 99 1017.0
20200808084542 0 22 0.0 0.0 0.00 0.00 0.00 99 1017.0
20200808084042 0 22 0.0 0.0 0.00 0.00 0.00 99
20200808083542 0 22 0.0 0.0 0.00 0.00 0.00 93 1017.0
20200808083042 0 0.0 0.0 0.00 0.00 0.00 99 1016.0
20200808082542 0 22 0.0 0.0 0.00 0.00 0.00 99 1017.0
20200808082042 0 22 0.0 0.0 0.00 0.00 0.00 99 3338.0
20200808081542 0 22 0.0 0.0 0.00 0.00 0.00 99 1017.0
20200808081044 0 22 0.0 0.0 0.00 0.00 0.00 99 1017.0
20200808080544 0 22 0.0 0.0 0.00 0.00 0.00 99
20200808080042 0 22 0.0 0.0 0.00 0.00 0.00 99
20200808075542 0 22 0.0 0.0 0.00 0.00 0.00 99 1017.0
20200808075044 0 22 0.0 0.0 0.00 0.00 0.00 99 1017.0
20200808074542 0 22 0.0 0.0 0.00 0.00 0.00 99 1017.0
20200808074042 0 11 0.0 0.0 0.00 0.00 0.00 99 995.0
20200808073542 0 22 0.0 0.0 0.00 0.00 0.00 99
20200808073042 0 337 0.0 0.0 0.00 0.00 0.00 99
20200808072542 0 5 0.0 0.0 0.00 0.00 0.00 99 1017.0
20200808072042 0 45 0.0 0.0 0.00 0.00 0.00 99 1017.0
20200808071542 0 270 0.0 0.0 0.00 0.00 0.00 99 1017.0
20200808071043 0 247 0.0 0.0 0.00 0.00 0.00 99 1017.0
20200808070542 0 247 0.0 0.0 0.00 0.00 0.00 99 1017.0
20200808070042 0 45 0.0 0.0 0.00 0.00 0.00 99 1017.0
20200808065544 0 45 0.0 0.0 0.00 0.00 0.00 99 1017.0
20200808065042 0 279 0.0 0.0 0.00 0.00 0.00 99 1017.0
20200808064542 0 270 0.0 0.0 0.00 0.00 0.00 99 1017.0
20200808064043 0 292 0.0 0.0 0.00 0.00 0.00 99 1017.0
20200808063542 0 281 0.0 0.0 0.00 0.00 0.00 99 1017.0
20200808063042 0 270 0.0 0.0 0.00 0.00 0.00 99 1017.0
20200808062543 0 270 0.0 0.0 0.00 0.00 0.00 99 1017.0
20200808062043 0 154 0.0 0.0 0.00 0.00 0.00 99 1017.0
20200808061548 0 157 0.0 0.0 0.00 0.00 0.00 99 1004.0
20200808061042 0 275 0.0 0.0 0.00 0.00 0.00 99 1017.0
20200808060544 0 288 0.0 0.0 0.00 0.00 0.00 99 1017.0
20200808060047 0 261 0.0 0.0 0.00 0.00 0.00 99 1017.0
20200808055543 0 265 0.0 99.0 0.00 0.00 0.00 99 1017.0
20200808055042 0 270 86.0 99.0 0.00 0.00 0.00 99 1017.0
20200808054542 0 337 0.0 0.0 0.00 0.00 0.00 99 1017.0
20200808054042 0 11 0.0 0.0 0.00 0.00 0.00 99 1017.0
20200808053542 0 4 0.0 0.0 0.00 0.00 0.00 99 1017.0
20200808053042 0 315 0.0 0.0 0.00 0.00 0.00 99 1017.0
20200808052554 0 315 0.0 0.0 0.00 0.00 0.00 99 1017.0
20200808052058 0 28 0.0 0.0 0.00 0.00 0.00 99 1017.0
20200808051557 65 45 0.0 0.0 0.00 0.00 0.00 99 1017.0
20200808051042 0 232 0.0 0.0 0.00 0.00 0.00 99 1017.0
20200808050652 0 180 0.0 0.0 0.00 0.00 0.00 99 1955.0
20200808050052 0 258 0.0 0.0 0.00 0.00 0.00 99 1017.0
20200808045542 0 270 0.0 0.0 0.00 0.00 0.00 99 1017.0
20200808045042 0 247 0.0 0.0 0.00 0.00 0.00 99 1017.0
20200808044542 0 45 0.0 0.0 0.00 0.00 0.00 96 1017.0
20200808044042 65 270 0.0 0.0 0.00 0.00 0.00 99 1017.0
20200808043543 0 22 0.0 0.0 0.00 0.00 0.00 99 1017.0
20200808043041 0 22 0.0 0.0 0.00 0.00 0.00 99 1017.0
20200808042542 0 22 0.0 0.0 0.00 0.00 0.00 99 1017.0
20200808042043 0 22 0.0 0.0 0.00 0.00 0.00 99
20200808041541 0 0 0.0 0.0 0.00 0.00 0.00 99 1017.0
20200808041042 0 45 0.0 0.0 0.00 0.00 0.00 99 1017.0
20200808040543 0 7 0.0 0.0 0.00 0.00 0.00 99 1017.0
20200808040041 0 40 0.0 0.0 0.00 0.00 0.00 97 1016.0
20200808035542 0 356 0.0 0.0 0.00 0.00 0.00 99 1017.0
20200808035041 0 315 0.0 0.0 0.00 0.00 0.00 99 1017.0
20200808034543 0 4 0.0 0.0 0.00 0.00 0.00 99 1017.0
20200808034041 0 270 0.0 0.0 0.00 0.00 0.00 99 1017.0
20200808033541 67 330 0.0 0.0 0.00 0.00 0.00 99 1016.0
20200808033041 0 270 0.0 0.0 0.00 0.00 0.00 99 1016.0
20200808032542 0 0.0 0.0 0.00 0.00 0.00 99
20200808032041 0 292 0.0 0.0 0.00 0.00 0.00 99
20200808031541 0 315 0.0 0.0 0.00 0.00 0.00 99 1016.0
20200808031041 0 22 0.0 0.0 0.00 0.00 0.00 99 1016.0
20200808030542 0 22 0.0 0.0 0.00 0.00 0.00 99
20200808030042 0 15 0.0 0.0 0.00 0.00 0.00 99 1017.0
20200808025542 0 22 0.0 0.0 0.00 0.00 0.00 99 1016.0
20200808025041 0 11 0.0 0.0 0.00 0.00 0.00 94 1017.0
20200808024541 0 16 0.0 0.0 0.00 0.00 0.00 99 1017.0
20200808024041 0 22 0.0 0.0 0.00 0.00 0.00 99 1017.0
20200808023541 0 22 0.0 0.0 0.00 0.00 0.00 99 1017.0
20200808023041 0 22 0.0 0.0 0.00 0.00 0.00 99 1017.0
20200808022541 0 9 0.0 0.0 0.00 0.00 0.00 99 1017.0
20200808022041 0 322 0.0 0.0 0.00 0.00 0.00 99 1016.0
20200808021541 0 22 0.0 0.0 0.00 0.00 0.00 99 1017.0
20200808021041 68 292 0.0 0.0 0.00 0.00 0.00 99
20200808020541 0 45 0.0 0.0 0.00 0.00 0.00 99
20200808020042 0 45 0.0 0.0 0.00 0.00 0.00 95 1016.0
20200808015543 0 319 0.0 0.0 0.00 0.00 0.00 99 1016.0
20200808015041 0 345 0.0 0.0 0.00 0.00 0.00 99 1016.0
20200808014541 0 22 0.0 0.0 0.00 0.00 0.00 99 993.0
20200808014041 0 33 0.0 0.0 0.00 0.00 0.00 99 974.0
20200808013542 0 45 0.0 0.0 0.00 0.00 0.00 99 3310.0
20200808013041 0 90 0.0 0.0 0.00 0.00 0.00 99 1016.0
20200808012541 0 90 0.0 0.0 0.00 0.00 0.00 94 1016.0
20200808012043 0 90 0.0 0.0 0.00 0.00 0.00 99 1016.0
20200808011541 0 90 0.0 0.0 0.00 0.00 0.00 99 4536.0
20200808011041 0 90 0.0 0.0 0.00 0.00 0.00 99 1017.0
20200808010541 0 82 0.0 0.0 0.00 0.00 0.00 99 1584.0
20200808010041 0 56 0.0 0.0 0.00 0.00 0.00 99 1017.0
20200808005542 0 22 0.0 0.0 0.00 0.00 0.00 99 1017.0
20200808005042 0 22 0.0 0.0 0.00 0.00 0.00 99 1017.0
20200808004542 0 15 0.0 0.0 0.00 0.00 0.00 99 1017.0
20200808004042 0 11 0.0 0.0 0.00 0.00 0.00 99 1016.0
20200808003541 0 0.0 0.0 0.00 0.00 0.00 99 1016.0
20200808003042 0 39 0.0 0.0 0.00 0.00 0.00 99 1016.0
20200808002542 0 0.0 0.0 0.00 0.00 0.00 99
20200808002042 0 45 0.0 0.0 0.00 0.00 0.00 99 1016.0
20200808001541 0 22 0.0 0.0 0.00 0.00 0.00 99 1016.0
20200808001042 0 0 0.0 0.0 0.00 0.00 0.00 99 1016.0
20200808000541 0 90 0.0 0.0 0.00 0.00 0.00 99 1016.0
20200808000041 0 90 0.0 0.0 0.00 0.00 0.00 99
20200807235542 0 270 0.0 0.0 0.00 0.00 0.00 99 1016.0
20200807235041 0 157 0.0 0.0 0.00 0.00 0.00 99 1016.0
20200807234547 0 90 0.0 0.0 0.00 0.00 0.00 99 1016.0
20200807234042 74 112 0.0 0.0 0.00 0.00 0.00 99
20200807233542 0 33 0.0 0.0 0.00 0.00 0.00 99
20200807233042 0 67 0.0 0.0 0.00 0.00 0.00 99 5752.0
20200807232543 0 90 0.0 0.0 0.00 0.00 0.00 99
20200807232043 0 0 0.0 1.0 0.00 0.00 0.00 99 1016.0
20200807231541 0 67 0.0 1.0 0.00 0.00 0.00 99 1016.0
20200807231041 0 33 0.0 1.0 0.00 0.00 0.00 99
20200807230541 0 172 0.0 0.0 0.00 0.00 0.00 99 976.0
20200807230041 0 112 0.0 99.0 0.00 0.00 0.00 99
20200807225541 0 140 109.0 99.0 0.00 0.00 0.00 99 1016.0
20200807225043 0 180 0.0 0.0 0.00 0.00 0.00 99 1016.0
20200807224541 0 90 0.0 0.0 0.00 0.00 0.00 99 1016.0
20200807224042 0 180 0.0 0.0 0.00 0.00 0.00 99 1016.0
20200807223541 0 0.0 0.0 0.00 0.00 0.00 99 1016.0
20200807223042 0 121 0.0 0.0 0.00 0.00 0.00 99 1016.0
20200807222541 0 58 0.0 0.0 0.00 0.00 0.00 99 1016.0
20200807222041 0 58 0.0 0.0 0.00 0.00 0.00 99 1016.0
20200807221541 0 95 0.0 0.0 0.00 0.00 0.00 99 1016.0
20200807221042 0 73 0.0 0.0 0.00 0.00 0.00 99 2181.0
20200807220542 0 30 0.0 1.0 0.00 0.00 0.00 99
20200807220041 0 33 0.0 1.0 0.00 0.00 0.00 99 1016.0
20200807215541 0 0.0 0.0 0.00 0.00 0.00 95 1016.0
20200807215041 0 165 0.0 1.0 0.00 0.00 0.00 99 1016.0
20200807214541 0 75 0.0 1.0 0.00 0.00 0.00 99 1016.0
20200807214042 0 90 0.0 1.0 0.00 0.00 0.00 99
20200807213542 0 112 0.0 1.0 0.00 0.00 0.00 99 1016.0
20200807213041 0 75 0.0 0.0 0.00 0.00 0.00 99
20200807212543 0 225 0.0 0.0 0.00 0.00 0.00 99 1016.0
20200807212041 80 343 0.0 0.0 0.00 0.00 0.00 99 1015.0
20200807211546 0 345 0.0 1.0 0.00 0.00 0.00 98 3309.0
20200807211041 0 236 0.0 99.0 0.00 0.00 0.00 94 1016.0
20200807210542 0 90 99.0 99.0 0.00 0.00 0.00 83 2594.0
20200807210042 0 123 0.0 1.0 0.00 0.00 0.00 91 1016.0
20200807205541 0 112 0.0 1.0 0.00 0.00 0.00 91 1016.0
20200807205041 83 11 0.0 1.0 0.00 0.00 0.00 90 1016.0
20200807204541 0 85 0.0 1.0 0.00 0.00 0.00 87 1016.0
20200807204041 0 30 0.0 1.0 0.00 0.00 0.00 90 1002.0
20200807203542 0 210 0.0 0.0 0.00 0.00 0.00 88 1016.0
20200807203041 0 135 0.0 1.0 0.00 0.00 0.00 87 1016.0
20200807202541 0 168 0.0 1.0 0.00 0.00 0.00 90 1016.0
20200807202042 0 225 0.0 1.0 0.00 0.00 0.00 90 1016.0
20200807201544 0 135 0.0 1.0 0.00 0.00 0.00 86 1016.0
20200807201042 0 213 0.0 1.0 0.00 0.00 0.00 93 1017.0
20200807200542 0 219 0.0 2.0 0.00 0.00 0.00 86 1017.0
20200807200041 0 247 0.0 2.0 0.00 0.00 0.00 92
20200807195541 0 213 0.0 1.0 0.00 0.00 0.00 85 1016.0
20200807195041 0 191 0.0 2.0 0.00 0.00 0.00 91
20200807194545 0 202 0.0 2.0 0.00 0.00 0.00 83
20200807193541 0 270 0.0 2.0 0.00 0.00 0.00 87
20200807193043 0 292 1.0 2.0 0.00 0.00 0.00 84 1017.0
20200807192541 0 217 1.0 2.0 0.00 0.00 0.00 90 1017.0
20200807192041 0 135 1.0 2.0 0.00 0.00 0.00 74 1017.0
20200807191541 0 180 1.0 3.0 0.00 0.00 0.00 78 1017.0
20200807191042 0 45 1.0 3.0 0.00 0.00 0.00 74 1017.0
20200807190541 0 315 1.0 3.0 0.00 0.00 0.00 77 1017.0
20200807190043 0 135 1.0 3.0 0.00 0.00 0.00 79 1017.0
20200807185541 92 135 1.0 3.0 0.00 0.00 0.00 73
20200807185043 0 210 1.0 3.0 0.00 0.00 0.00 77 1017.0
20200807184541 0 90 1.0 3.0 0.00 0.00 0.00 68 1017.0
20200807183541 0 247 1.0 3.0 0.00 0.00 0.00 68 3363.0
20200807183041 0 277 1.0 3.0 0.00 0.00 0.00 90 1017.0
20200807182543 0 315 0.0 3.0 0.00 0.00 0.00 82 984.0
20200807182041 0 247 1.0 3.0 0.00 0.00 0.00 85 1017.0
20200807181541 0 285 1.0 3.0 0.00 0.00 0.00 82 5691.0
20200807181041 0 202 1.0 2.0 0.00 0.00 0.00 80 1016.0
20200807180541 0 202 0.0 2.0 0.00 0.00 0.00 80 1017.0
20200807180041 0 78 1.0 2.0 0.00 0.00 0.00 81 1017.0
20200807175541 0 61 0.0 2.0 0.00 0.00 0.00 79 1017.0
20200807175041 0 153 0.0 2.0 0.00 0.00 0.00 76 1017.0
20200807174541 0 0 0.0 3.0 0.00 0.00 0.00 85 1017.0
20200807173541 0 217 1.0 2.0 0.00 0.00 0.00 81 1017.0
20200807173042 0 255 1.0 2.0 0.00 0.00 0.00 73 1017.0
20200807172541 0 326 1.0 2.0 0.00 0.00 0.00 80 992.0
20200807172043 0 145 0.0 1.0 0.00 0.00 0.00 77 1017.0
20200807171541 0 163 0.0 3.0 0.00 0.00 0.00 76 1017.0
20200807171043 0 13 1.0 3.0 0.00 0.00 0.00 70 1017.0
20200807170541 0 146 1.0 3.0 0.00 0.00 0.00 71 1017.0
20200807170041 0 191 1.0 3.0 0.00 0.00 0.00 77 1017.0
20200807165541 0 247 1.0 3.0 0.00 0.00 0.00 84 1017.0
20200807165041 85 135 1.0 4.0 0.00 0.00 0.00 85 1017.0
20200807164542 85 22 2.0 4.0 0.00 0.00 0.00 91 1017.0
20200807164041 0 116 2.0 3.0 0.00 0.00 0.00 83 1017.0
20200807163542 0 196 1.0 3.0 0.00 0.00 0.00 86 974.0
20200807163041 0 22 1.0 2.0 0.00 0.00 0.00 89 1017.0
20200807162543 0 22 1.0 3.0 0.00 0.00 0.00 88 6873.0
20200807162041 0 247 1.0 3.0 0.00 0.00 0.00 95
20200807161541 0 61 1.0 3.0 0.00 0.00 0.00 98
20200807161041 0 123 1.0 4.0 0.00 0.00 0.00 99 1017.0
20200807160541 0 309 2.0 4.0 0.00 0.00 0.00 99 1018.0
20200807160042 0 315 2.0 3.0 0.00 0.00 0.00 99 1017.0
20200807155541 0 67 1.0 3.0 0.00 0.00 0.00 96
20200807155045 0 135 1.0 3.0 0.00 0.00 0.00 99
20200807154541 0 112 1.0 4.0 0.00 0.00 0.00 99
20200807153541 0 202 1.0 3.0 0.00 0.00 0.00 99 1018.0
20200807153040 0 225 0.0 2.0 0.00 0.00 0.00 99 1018.0
20200807152544 0 202 0.0 2.0 0.00 0.00 0.00 99
20200807152042 0 82 1.0 2.0 0.00 0.00 0.00 99 1018.0
20200807151541 0 202 0.0 2.0 0.00 0.00 0.00 99 1018.0
20200807151040 0 95 0.0 2.0 0.00 0.00 0.00 99 1018.0
20200807150541 0 142 0.0 2.0 0.00 0.00 0.00 99 1018.0
20200807150041 0 112 0.0 3.0 0.00 0.00 0.00 99 1018.0
20200807145541 66 22 1.0 3.0 0.00 0.00 0.00 99 1018.0
20200807145040 0 213 0.0 2.0 0.00 0.00 0.00 99
20200807144541 0 175 0.0 2.0 0.00 0.00 0.00 99 1018.0
20200807143540 0 33 0.0 3.0 0.00 0.00 0.00 96 1018.0
20200807143040 0 90 0.0 1.0 0.00 0.00 0.00 99 1018.0
20200807142541 0 292 0.0 1.0 0.00 0.00 0.00 99 1018.0
20200807142041 0 90 0.0 1.0 0.00 0.00 0.00 99 1089.0
20200807141540 0 185 0.0 1.0 0.00 0.00 0.00 99 1018.0
20200807141040 0 196 0.0 1.0 0.00 0.00 0.00 99 1018.0
20200807140542 0 135 0.0 2.0 0.00 0.00 0.00 99 1018.0
20200807140040 0 22 0.0 2.0 0.00 0.00 0.00 99 1018.0
20200807135540 64 187 0.0 1.0 0.00 0.00 0.00 93 1018.0
20200807135041 0 168 0.0 99.0 0.00 0.00 0.00 99 1018.0
20200807134541 0 45 99.0 99.0 0.00 0.00 0.00 99 1018.0
20200807133543 0 157 0.0 1.0 0.00 0.00 0.00 99 1018.0
20200807133041 0 106 0.0 1.0 0.00 0.00 0.00 99 1018.0
20200807132541 0 184 0.0 1.0 0.00 0.00 0.00 99 1018.0
20200807132044 63 207 0.0 0.0 0.00 0.00 0.00 99 1018.0
20200807131541 0 45 0.0 0.0 0.00 0.00 0.00 99 975.0
20200807131041 0 27 0.0 1.0 0.00 0.00 0.00 99 1009.0
20200807130541 0 150 0.0 1.0 0.00 0.00 0.00 96 1018.0
20200807130041 0 93 0.0 1.0 0.00 0.00 0.00 99 1018.0
20200807125540 0 112 0.0 1.0 0.00 0.00 0.00 99 1956.0
20200807125041 0 202 0.0 1.0 0.00 0.00 0.00 99 1017.0
20200807124542 0 153 0.0 1.0 0.00 0.00 0.00 99 1018.0
20200807123540 62 174 0.0 2.0 0.00 0.00 0.00 99 1018.0
20200807123041 0 67 1.0 2.0 0.00 0.00 0.00 99 1799.0
20200807122542 0 40 0.0 2.0 0.00 0.00 0.00 99 1018.0
20200807122040 0 281 1.0 3.0 0.00 0.00 0.00 99 1018.0
20200807121541 0 258 0.0 3.0 0.00 0.00 0.00 99 1018.0